• en Suisse
  • Liste des pays
  • À 7 jours
  • Température de l'eau
  • Carte satellitaire
  • Carte météo
  • Widgets météo
  • user-avatar
    Se connecter

    Météo par heure à Djibouti

    Ce jour, 18 Juin, Lundi

    Heure Température Précipitation Vent Pression Humidité
    00:00 +38°C° 0 mm 2 m/s 752 mmHg 34%
    01:00 +37°C° 0 mm 1 m/s 752 mmHg 34%
    02:00 +36°C° 0 mm 1 m/s 752 mmHg 35%
    03:00 +33°C° 0 mm 0 m/s 752 mmHg 36%
    04:00 +33°C° 0 mm 0 m/s 752 mmHg 35%
    05:00 +33°C° 0 mm 0 m/s 752 mmHg 34%
    06:00 +33°C° 0 mm 0 m/s 752 mmHg 33%
    07:00 +36°C° 0 mm 1 m/s 753 mmHg 30%
    08:00 +37°C° 0 mm 1 m/s 753 mmHg 27%
    09:00 +40°C° 0 mm 2 m/s 753 mmHg 23%
    10:00 +41°C° 0 mm 2 m/s 753 mmHg 22%
    11:00 +42°C° 0 mm 2 m/s 752 mmHg 21%
    12:00 +43°C° 0 mm 3 m/s 752 mmHg 21%
    13:00 +44°C° 0 mm 3 m/s 752 mmHg 20%
    14:00 +44°C° 0 mm 3 m/s 751 mmHg 20%
    15:00 +45°C° 0 mm 4 m/s 751 mmHg 20%
    16:00 +44°C° 0 mm 3 m/s 750 mmHg 22%
    17:00 +43°C° 0 mm 3 m/s 750 mmHg 24%
    18:00 +42°C° 0 mm 3 m/s 750 mmHg 26%
    19:00 +40°C° 0 mm 3 m/s 750 mmHg 27%
    20:00 +40°C° 0 mm 3 m/s 751 mmHg 29%
    21:00 +39°C° 0 mm 2 m/s 751 mmHg 31%
    22:00 +38°C° 0 mm 3 m/s 751 mmHg 32%
    23:00 +38°C° 0 mm 3 m/s 751 mmHg 34%

    Demain, 19 Juin, Mardi

    Heure Température Précipitation Vent Pression Humidité
    00:00 +37°C° 0 mm 3 m/s 752 mmHg 35%
    01:00 +37°C° 0 mm 2 m/s 751 mmHg 38%
    02:00 +35°C° 0 mm 1 m/s 751 mmHg 41%
    03:00 +35°C° 0 mm 1 m/s 751 mmHg 43%
    04:00 +34°C° 0 mm 1 m/s 751 mmHg 43%
    05:00 +34°C° 0 mm 1 m/s 752 mmHg 42%
    06:00 +34°C° 0 mm 1 m/s 752 mmHg 41%
    07:00 +37°C° 0 mm 2 m/s 752 mmHg 37%
    08:00 +38°C° 0 mm 2 m/s 753 mmHg 32%
    09:00 +40°C° 0 mm 2 m/s 753 mmHg 28%
    10:00 +41°C° 0 mm 2 m/s 753 mmHg 26%
    11:00 +42°C° 0 mm 2 m/s 753 mmHg 24%
    12:00 +43°C° 0 mm 2 m/s 753 mmHg 22%
    13:00 +45°C° 0 mm 3 m/s 752 mmHg 22%
    14:00 +45°C° 0 mm 4 m/s 751 mmHg 23%
    15:00 +45°C° 0 mm 4 m/s 751 mmHg 23%
    16:00 +44°C° 0 mm 4 m/s 751 mmHg 26%
    17:00 +43°C° 0 mm 4 m/s 751 mmHg 29%
    18:00 +42°C° 0 mm 3 m/s 750 mmHg 32%
    19:00 +40°C° 0 mm 3 m/s 751 mmHg 36%
    20:00 +39°C° 0 mm 3 m/s 751 mmHg 39%
    21:00 +38°C° 0 mm 3 m/s 752 mmHg 42%
    22:00 +38°C° 0 mm 2 m/s 752 mmHg 43%
    23:00 +37°C° 0 mm 2 m/s 752 mmHg 44%

    Après-demain, 20 Juin, Mercredi

    Heure Température Précipitation Vent Pression Humidité
    00:00 +37°C° 0 mm 2 m/s 752 mmHg 45%
    01:00 +37°C° 0 mm 2 m/s 752 mmHg 46%
    02:00 +36°C° 0 mm 2 m/s 752 mmHg 47%
    03:00 +35°C° 0 mm 1 m/s 752 mmHg 48%
    04:00 +35°C° 0 mm 1 m/s 752 mmHg 46%
    05:00 +35°C° 0 mm 1 m/s 752 mmHg 44%
    06:00 +35°C° 0 mm 1 m/s 752 mmHg 42%
    07:00 +36°C° 0 mm 1 m/s 753 mmHg 38%
    08:00 +39°C° 0 mm 1 m/s 753 mmHg 35%
    09:00 +40°C° 0 mm 2 m/s 754 mmHg 32%
    10:00 +41°C° 0 mm 2 m/s 754 mmHg 30%
    11:00 +42°C° 0 mm 2 m/s 754 mmHg 27%
    12:00 +44°C° 0 mm 3 m/s 753 mmHg 25%
    13:00 +45°C° 0 mm 3 m/s 753 mmHg 25%
    14:00 +45°C° 0 mm 3 m/s 752 mmHg 24%
    15:00 +45°C° 0 mm 3 m/s 751 mmHg 24%
    16:00 +44°C° 0 mm 3 m/s 751 mmHg 26%
    17:00 +44°C° 0 mm 4 m/s 751 mmHg 29%
    18:00 +43°C° 0 mm 4 m/s 751 mmHg 31%
    19:00 +42°C° 0 mm 3 m/s 751 mmHg 33%
    20:00 +40°C° 0 mm 3 m/s 752 mmHg 36%
    21:00 +39°C° 0 mm 2 m/s 753 mmHg 38%
    22:00 +39°C° 0 mm 2 m/s 753 mmHg 36%
    23:00 +39°C° 0 mm 2 m/s 753 mmHg 34%

    21 Juin, Jeudi

    Heure Température Précipitation Vent Pression Humidité
    00:00 +39°C° 0 mm 2 m/s 753 mmHg 33%
    01:00 +37°C° 0 mm 1 m/s 753 mmHg 34%
    02:00 +37°C° 0 mm 1 m/s 752 mmHg 35%
    03:00 +36°C° 0 mm 1 m/s 752 mmHg 36%
    04:00 +36°C° 0 mm 1 m/s 752 mmHg 36%
    05:00 +36°C° 0 mm 1 m/s 753 mmHg 36%
    06:00 +36°C° 0 mm 1 m/s 753 mmHg 36%
    07:00 +38°C° 0 mm 2 m/s 753 mmHg 33%
    08:00 +40°C° 0 mm 3 m/s 754 mmHg 29%
    09:00 +43°C° 0 mm 3 m/s 754 mmHg 25%
    10:00 +44°C° 0 mm 3 m/s 754 mmHg 23%
    11:00 +45°C° 0 mm 4 m/s 754 mmHg 21%
    12:00 +45°C° 0 mm 4 m/s 753 mmHg 19%
    13:00 +47°C° 0 mm 4 m/s 752 mmHg 19%
    14:00 +47°C° 0 mm 4 m/s 752 mmHg 20%
    15:00 +47°C° 0 mm 4 m/s 751 mmHg 20%
    16:00 +45°C° 0 mm 4 m/s 751 mmHg 23%
    17:00 +44°C° 0 mm 4 m/s 751 mmHg 25%
    18:00 +43°C° 0 mm 4 m/s 751 mmHg 28%
    19:00 +42°C° 0 mm 4 m/s 751 mmHg 29%
    20:00 +40°C° 0 mm 3 m/s 752 mmHg 31%
    21:00 +39°C° 0 mm 3 m/s 752 mmHg 32%
    22:00 +39°C° 0 mm 3 m/s 752 mmHg 32%
    23:00 +39°C° 0 mm 3 m/s 752 mmHg 32%

    22 Juin, Vendredi

    Heure Température Précipitation Vent Pression Humidité
    00:00 +39°C° 0 mm 3 m/s 752 mmHg 31%
    01:00 +39°C° 0 mm 3 m/s 752 mmHg 31%
    02:00 +39°C° 0 mm 3 m/s 752 mmHg 31%
    03:00 +38°C° 0 mm 3 m/s 751 mmHg 31%
    04:00 +38°C° 0 mm 3 m/s 752 mmHg 31%
    05:00 +38°C° 0 mm 3 m/s 752 mmHg 32%
    06:00 +38°C° 0 mm 2 m/s 752 mmHg 32%
    07:00 +39°C° 0 mm 3 m/s 753 mmHg 29%
    08:00 +42°C° 0 mm 4 m/s 753 mmHg 26%
    09:00 +44°C° 0 mm 6 m/s 754 mmHg 23%
    10:00 +45°C° 0 mm 5 m/s 753 mmHg 21%
    11:00 +46°C° 0 mm 5 m/s 753 mmHg 18%
    12:00 +48°C° 0 mm 5 m/s 752 mmHg 16%
    13:00 +48°C° 0 mm 5 m/s 751 mmHg 16%
    14:00 +48°C° 0 mm 4 m/s 751 mmHg 16%
    15:00 +48°C° 0 mm 4 m/s 750 mmHg 16%
    16:00 +47°C° 0 mm 4 m/s 750 mmHg 18%
    17:00 +47°C° 0 mm 5 m/s 750 mmHg 21%
    18:00 +46°C° 0 mm 5 m/s 749 mmHg 24%
    19:00 +45°C° 0 mm 5 m/s 750 mmHg 28%
    20:00 +42°C° 0 mm 4 m/s 751 mmHg 33%
    21:00 +41°C° 0 mm 4 m/s 751 mmHg 38%
    22:00 +41°C° 0 mm 4 m/s 751 mmHg 39%
    23:00 +40°C° 0 mm 4 m/s 751 mmHg 40%

    23 Juin, Samedi

    Heure Température Précipitation Vent Pression Humidité
    00:00 +40°C° 0 mm 4 m/s 751 mmHg 41%
    01:00 +39°C° 0 mm 3 m/s 751 mmHg 41%
    02:00 +38°C° 0 mm 3 m/s 750 mmHg 42%
    03:00 +38°C° 0 mm 3 m/s 750 mmHg 42%
    04:00 +38°C° 0 mm 3 m/s 751 mmHg 41%
    05:00 +38°C° 0 mm 2 m/s 751 mmHg 41%
    06:00 +37°C° 0 mm 2 m/s 752 mmHg 40%
    07:00 +39°C° 0 mm 2 m/s 752 mmHg 35%
    08:00 +40°C° 0 mm 3 m/s 753 mmHg 31%
    09:00 +42°C° 0 mm 3 m/s 753 mmHg 26%
    10:00 +43°C° 0 mm 3 m/s 753 mmHg 24%
    11:00 +44°C° 0 mm 4 m/s 752 mmHg 22%
    12:00 +45°C° 0 mm 4 m/s 752 mmHg 20%
    13:00 +45°C° 0 mm 4 m/s 751 mmHg 20%
    14:00 +47°C° 0 mm 4 m/s 750 mmHg 21%
    15:00 +47°C° 0 mm 4 m/s 750 mmHg 21%
    16:00 +45°C° 0 mm 4 m/s 750 mmHg 25%
    17:00 +43°C° 0 mm 5 m/s 750 mmHg 29%
    18:00 +42°C° 0 mm 5 m/s 750 mmHg 33%
    19:00 +41°C° 0 mm 4 m/s 750 mmHg 35%
    20:00 +40°C° 0 mm 3 m/s 751 mmHg 37%
    21:00 +39°C° 0 mm 3 m/s 751 mmHg 39%
    22:00 +39°C° 0 mm 3 m/s 751 mmHg 37%
    23:00 +39°C° 0 mm 3 m/s 751 mmHg 35%
    Voir plus